STARLINK-1934 (46792 NORAD) Tracking and Keplerian Element Data

This shows tracking and keplerian element data for the satellite.

Feedback or suggestion? Click here.




ElementValue
Catalog46792
NameSTARLINK-1934
Epoch Orbit184
Epoch Day327.91667824
Epoch Year2020
RAAN16.6809
Inclination53.0558
Eccentricity0.0001073
Argument of Perigee52.3935
Mean Anonmoly218.9045
Mean Motion15.62795092
Decay Rate-0.00054088
L11 46792U 20074BF 20327.91667824 -.00054088 00000-0 -58786-3 0 9992
L22 46792 53.0558 16.6809 0001073 52.3935 218.9045 15.62795092 1842

Live tracking and technical data element details for STARLINK-1934 (NORAD 46792). STARLINK-1934 can be tracked NOW for your location showing map with azimuth and elevation plus other details from your city location.

Track the satellite on the map from your city or location and see movement details for azimuth, elevation, latitude, longitude, range, height, and movement on the map or in text.







IsCatalogInMostPopularTable: catalog: 46792, numindb: 5
Update: records affected: 1



GetName: 46792 STARLINK-1934

Hit Count: updated at: Tue, 24 Nov 2020 11:45:09 GMT